Springfield-Branson National Airport Airport (SGF)

 

Airport Diagram
Current Weather/Forecast (VFR Conditions)
METAR KSGF 280652Z 16005KT 10SM CLR 14/12 A2994 RMK AO2 SLP133 T01390122
TAF KSGF 280520Z 2806/2906 VRB03KT P6SM SKC FM281700 16014G22KT P6SM SCT250

All Charts
General
Chart Name Download
AIRPORT DIAGRAM
TAKEOFF MINIMUMS
ALTERNATE MINIMUMS
HOT SPOT

Approaches
Chart Name Download
ILS OR LOC RWY 02
ILS OR LOC RWY 14
RNAV (GPS) RWY 02
RNAV (GPS) RWY 14
RNAV (GPS) RWY 20
RNAV (GPS) RWY 32
VOR/DME OR TACAN RWY 02
VOR OR TACAN RWY 20
HI-TACAN RWY 20